"Pseudo-MPEC" for P110KAE

Created 2020 May 23 13:07:18 UT using Find_Orb

Click here for an explanation of pseudo-MPECs

 
 Astrometry: 
     P110KAE  C2020 05 21K(@TZKL)[(4i9-$$7q5S*M]f.G?K)Astrometry_,^s1dll75`D9F51
     P110KAE  C2020 05 21d5/[$b?[5#GxWH=(Q#hivySSFD[`hu$W*9[GY6\=4me,O=c,9q:lF52
     P110KAE  C2020 05 21=n6S.X(2if%Kredacted;g8g$N+lAJRqg;5NU`BGX681DJm0:Y5eF51
     P110KAE  C2020 05 21GN,%kqxJo]?^etD-Bw4gA^Z+clickRnAq;IX@%IkW?oL#50B//P+F51
     P110KAE  C2020 05 211MsSIXgTd[O\vR:p2=i]e:\dhere5fforIGnCT=UAq?#!!SSoJe3F52
     P110KAE  C2020 05 21f/J+K,QTJAAsBipv,K=WktXFNfxQ)`SIeK/q%38aZiW0u)M-NHetF51
     P110KAE  C2020 05 21v+jN7MFQZI=+3h1Fe-:UeJ*HQ7PyW$OboWyB#QW'Hb:6M`p9Hdn3F52
     P110KAE  C2020 05 214R5eje?!in=8=5]HldJT$`\?0ugtCT.uCM?explanation.l@Q;8F52
     P110KAE  C2020 05 22.22757 16 00 28.62 +16 54 22.6    ~5M67 22.0 GVNEOCPV06
     P110KAE  C2020 05 22.22994 16 00 28.40 +16 54 20.9    ~5M67 22.2 GVNEOCPV06
     P110KAE  C2020 05 22.23232 16 00 28.26 +16 54 20.0    ~5M67       VNEOCPV06
     P110KAE  C2020 05 22.23470 16 00 27.95 +16 54 18.4    ~5M67 21.5 GVNEOCPV06
     P110KAE  C2020 05 23.30420 15 58 53.34 +16 43 13.5    ~5N7q 21.6 GVNEOCPV06
     P110KAE  C2020 05 23.30737 15 58 53.05 +16 43 11.6    ~5N7q 21.9 GVNEOCPV06
     P110KAE  C2020 05 23.31054 15 58 52.86 +16 43 10.2    ~5N7q       VNEOCPV06
     P110KAE  C2020 05 23.31371 15 58 52.49 +16 43 07.3    ~5N7q 21.7 GVNEOCPV06

Station data:
(F51) Pan-STARRS 1, Haleakala  (N20.707235 W156.255910)  US/Hawaii.
   Observers N. Primak, A. Schultz, S. Watters, J. Thiel, T. Goggia. Measurer
   PS1 Science Consortium. 1.8-m Ritchey-Chrétien + CCD.
(F52) Pan-STARRS 2, Haleakala  (N20.707384 W156.255910)  US/Hawaii. 1.8-m
   Ritchey-Chrétien + CCD.
(V06) Catalina Sky Survey-Kuiper  (N32.416847 W110.732550)  US/Arizona.
   Observers T. A. Pruyne, B. M. Africano, E. J. Christensen, G. A. Farneth,
   D. C. Fuls, A. R. Gibbs, A. D. Grauer, H. Gröller, J. A. Johnson, R. A.
   Kowalski, S. M. Larson, G. J. Leonard, D. Rankin, R. L. Seaman, F. C.
   Shelly. 1.55-m reflector + CCD.

Orbital elements:  P110KAE
   Perihelion 2021 Aug 24.130176 +/- 722 TT =  3:07:27 (JD 2459450.630176)
Epoch 2020 May 23.0 TT = JDT 2458992.5   Earth MOID: 0.8116   AutoNEOCP
M 182.37750214 +/- 280              (J2000 ecliptic)
n   0.38771184 +/- 0.0237           Peri.  312.76910 +/- 46
a   1.86264460 +/- 0.0759           Node    99.88983 +/- 3.7
e   0.0485211 +/- 0.0209            Incl.   26.78684 +/- 2.3
P   2.54/928.51d           H 19.6   G  0.15   U 10.3  
q 1.77226703 +/- 0.106    Q 1.95302218 +/- 0.0404
From 16 observations 2020 May 21-23 (43.5 hr); mean residual 0".33
Residuals in arcseconds: 
200521 F51  .00   .01-    200521 F52  .15+  .40-    200523 V06  .41-  .21-    
200521 F52  .02-  .13+    200521 F52  .33+  .06+    200523 V06  .42-  .08-    
200521 F51  .04+  .07+    200522 V06  .20-  .04+    200523 V06  1.0+  .54+    
200521 F51  .18-  .09+    200522 V06  .26-  .24-    200523 V06  .15-  .33-    
200521 F52  .11-  .03+    200522 V06  .84+  .28+    
200521 F51  .16-  .06-    200522 V06  .49-  .11+    

Ephemerides (geocentric):
Date (UTC) HH   RA              Dec         delta   r     elong  mag " sig PA
---- -- -- --  -------------   -----------  ------ ------ -----  --- ---- ---
2020 05 23 13  15 58 32.436   +16 40 43.36  1.0489 1.9529 142.6 22.1 .356 125
2020 05 23 14  15 58 28.764   +16 40 16.40  1.0489 1.9529 142.6 22.1 .427 125
2020 05 23 15  15 58 25.093   +16 39 49.38  1.0489 1.9529 142.6 22.1 .500 125
2020 05 23 16  15 58 21.421   +16 39 22.30  1.0489 1.9529 142.6 22.1 .576 124
2020 05 23 17  15 58 17.751   +16 38 55.17  1.0489 1.9529 142.6 22.1 .655 124
2020 05 23 18  15 58 14.080   +16 38 27.99  1.0489 1.9529 142.6 22.1 .737 124
2020 05 23 19  15 58 10.411   +16 38 00.75  1.0489 1.9529 142.6 22.1 .822 124
2020 05 23 20  15 58 06.741   +16 37 33.45  1.0489 1.9529 142.6 22.1 .909 124
2020 05 23 21  15 58 03.072   +16 37 06.09  1.0489 1.9529 142.6 22.1 1.00 124
2020 05 23 22  15 57 59.404   +16 36 38.69  1.0489 1.9529 142.6 22.1 1.09 124
2020 05 23 23  15 57 55.736   +16 36 11.22  1.0489 1.9529 142.6 22.1 1.19 124
2020 05 24 00  15 57 52.068   +16 35 43.70  1.0489 1.9529 142.6 22.1 1.29 124
2020 05 24 01  15 57 48.401   +16 35 16.13  1.0489 1.9529 142.6 22.1 1.39 124
2020 05 24 02  15 57 44.734   +16 34 48.49  1.0489 1.9529 142.6 22.1 1.49 124
2020 05 24 03  15 57 41.068   +16 34 20.81  1.0489 1.9529 142.6 22.1 1.60 124
2020 05 24 04  15 57 37.402   +16 33 53.07  1.0489 1.9529 142.6 22.1 1.71 123
2020 05 24 05  15 57 33.737   +16 33 25.27  1.0489 1.9529 142.6 22.1 1.82 123
2020 05 24 06  15 57 30.073   +16 32 57.42  1.0489 1.9529 142.6 22.1 1.94 123
2020 05 24 07  15 57 26.409   +16 32 29.51  1.0489 1.9529 142.6 22.1 2.05 123
2020 05 24 08  15 57 22.745   +16 32 01.55  1.0489 1.9529 142.6 22.1 2.17 123
2020 05 24 09  15 57 19.082   +16 31 33.53  1.0490 1.9529 142.6 22.1 2.30 123
2020 05 24 10  15 57 15.420   +16 31 05.45  1.0490 1.9529 142.6 22.1 2.42 123
2020 05 24 11  15 57 11.758   +16 30 37.32  1.0490 1.9529 142.6 22.1 2.55 123
2020 05 24 12  15 57 08.097   +16 30 09.14  1.0490 1.9529 142.6 22.1 2.69 123
2020 05 24 13  15 57 04.436   +16 29 40.90  1.0490 1.9529 142.6 22.1 2.82 123
2020 05 24 14  15 57 00.776   +16 29 12.61  1.0490 1.9529 142.6 22.1 2.96 123
2020 05 24 15  15 56 57.117   +16 28 44.26  1.0490 1.9529 142.6 22.1 3.10 123
2020 05 24 16  15 56 53.458   +16 28 15.85  1.0490 1.9529 142.6 22.1 3.24 123
2020 05 24 17  15 56 49.800   +16 27 47.39  1.0490 1.9529 142.6 22.1 3.39 123
2020 05 24 18  15 56 46.142   +16 27 18.88  1.0490 1.9529 142.6 22.1 3.54 122
2020 05 24 19  15 56 42.485   +16 26 50.31  1.0491 1.9529 142.6 22.1 3.69 122
2020 05 24 20  15 56 38.829   +16 26 21.68  1.0491 1.9529 142.6 22.1 3.85 122
2020 05 24 21  15 56 35.174   +16 25 53.00  1.0491 1.9529 142.6 22.1 4.00 122
2020 05 24 22  15 56 31.519   +16 25 24.27  1.0491 1.9529 142.6 22.1 4.16 122
2020 05 24 23  15 56 27.864   +16 24 55.48  1.0491 1.9529 142.5 22.1 4.33 122
2020 05 25 00  15 56 24.211   +16 24 26.63  1.0491 1.9529 142.5 22.1 4.49 122
2020 05 25 01  15 56 20.558   +16 23 57.73  1.0491 1.9529 142.5 22.1 4.66 122
2020 05 25 02  15 56 16.906   +16 23 28.78  1.0492 1.9529 142.5 22.1 4.83 122
2020 05 25 03  15 56 13.254   +16 22 59.77  1.0492 1.9529 142.5 22.1 5.01 122
2020 05 25 04  15 56 09.603   +16 22 30.70  1.0492 1.9529 142.5 22.1 5.19 122
2020 05 25 05  15 56 05.953   +16 22 01.59  1.0492 1.9529 142.5 22.1 5.37 122
2020 05 25 06  15 56 02.304   +16 21 32.41  1.0492 1.9529 142.5 22.1 5.55 122
2020 05 25 07  15 55 58.656   +16 21 03.18  1.0492 1.9529 142.5 22.1 5.74 122
2020 05 25 08  15 55 55.008   +16 20 33.90  1.0492 1.9529 142.5 22.1 5.93 122
2020 05 25 09  15 55 51.361   +16 20 04.56  1.0493 1.9529 142.5 22.1 6.12 122
2020 05 25 10  15 55 47.714   +16 19 35.17  1.0493 1.9529 142.5 22.1 6.31 121
2020 05 25 11  15 55 44.069   +16 19 05.72  1.0493 1.9529 142.5 22.1 6.51 121
2020 05 25 12  15 55 40.424   +16 18 36.22  1.0493 1.9529 142.5 22.1 6.71 121